Overview Statistics Trail Chart Weather Telemetry Raw packets
 

This is the latest recevied weather packets stored in our database for station/object SV9FBP-13. If no packets are shown the sender has not sent any weather packets the latest 10 day(s).

<< 22 23 24 25 26 27 28 >>
Time Temp. Humidity Pressure Rain* Wind** Luminosity Snow
1788135332 27.78° C 39% 1009.9 hPa 0 mm - - -
1788134430 28.33° C 36% 1010.1 hPa 0 mm - - -
1788133527 28.33° C 37% 1010 hPa 0 mm - - -
1788132626 28.33° C 36% 1010.2 hPa 0 mm - - -
1788131723 28.33° C 35% 1010.3 hPa 0 mm - - -
1788130821 28.89° C 33% 1010.3 hPa 0 mm - - -
1788129919 28.33° C 33% 1010.2 hPa 0 mm - - -
1788129017 28.89° C 32% 1010.3 hPa 0 mm - - -
1788128114 28.89° C 32% 1010.3 hPa 0 mm - - -
1788127213 28.33° C 31% 1010.4 hPa 0 mm - - -
1788126311 28.33° C 31% 1010.1 hPa 0 mm - - -
1788125408 28.33° C 32% 1010.1 hPa 0 mm - - -
1788124506 28.33° C 34% 1010 hPa 0 mm - - -
1788123604 28.33° C 37% 1010.2 hPa 0 mm - - -
1788122702 28.33° C 34% 1010.1 hPa 0 mm - - -
1788121800 28.33° C 32% 1010.3 hPa 0 mm - - -
1788120913 28.89° C 32% 1009.8 hPa 0 mm - - -
1788119995 28.89° C 33% 1009.6 hPa 0 mm - - -
1788119094 28.89° C 34% 1009.3 hPa 0 mm - - -
1788118191 28.89° C 32% 1009.1 hPa 0 mm - - -
1788117292 28.89° C 31% 1008.8 hPa 0 mm - - -
1788116386 29.44° C 30% 1008.9 hPa 0 mm - - -
1788115484 29.44° C 30% 1008.5 hPa 0 mm - - -
1788114583 28.89° C 33% 1008.4 hPa 0 mm - - -
1788113681 28.89° C 33% 1008.6 hPa 0 mm - - -

* Rain latest hour (hover to see other rain measurements)
** Current wind speed in m/s (hover to see current wind gust speed)